Location: Mococo
(38.0255°N, 122.1161°W)
Time: 06:17:33
(UTC+00:00)

Meteor 1-11 - Pass Details

Date: 13 February 2026
Orbit: 829 x 895 km, 81.2° (Epoch: 5 March)

Event Time Altitude Azimuth Distance (km) Brightness Sun altitude
Rises 13:03:06 0° 350° (N) 3,509 7.3 -23.7°
Reaches altitude 10° 13:05:34 10° 350° (N) 2,570 6.6 -23.2°
Maximum altitude 13:11:26 86° 263° (W) 902 4.2 -22.1°
Drops below altitude 10° 13:17:17 10° 175° (S) 2,553 6.8 -20.9°
Sets 13:19:43 0° 174° (S) 3,484 7.5 -20.4°
